This is the latest recevied weather packets stored in our database for station/object W4BOD. If no packets are shown the sender has not sent any weather packets the latest 10 day(s).
| Time | Temp. | Humidity | Pressure | Rain* | Wind** | Luminosity | Snow |
|---|---|---|---|---|---|---|---|
| 1777944920 | 23.33° C | 49% | 1009.9 hPa | 0 mm | - | 0 W/m² | - |
| 1777944618 | 23.89° C | 50% | 1009.9 hPa | 0 mm | - | 0 W/m² | - |
| 1777944316 | 23.89° C | 49% | 1010 hPa | 0 mm | - | 0 W/m² | - |
| 1777944013 | 23.89° C | 49% | 1010.2 hPa | 0 mm | - | 0 W/m² | - |
| 1777943708 | 23.89° C | 48% | 1009.9 hPa | 0 mm | - | 0 W/m² | - |
| 1777943406 | 23.89° C | 48% | 1010 hPa | 0 mm | - | 0 W/m² | - |
| 1777943101 | 24.44° C | 48% | 1009.9 hPa | 0 mm | - | 0 W/m² | - |
| 1777942797 | 24.44° C | 47% | 1009.8 hPa | 0 mm | - | 0 W/m² | - |
| 1777942494 | 24.44° C | 48% | 1009.9 hPa | 0 mm | - | 0 W/m² | - |
| 1777942192 | 24.44° C | 48% | 1009.7 hPa | 0 mm | - | 0 W/m² | - |
| 1777941889 | 24.44° C | 47% | 1009.9 hPa | 0 mm | - | 1 W/m² | - |
| 1777941586 | 25° C | 47% | 1010 hPa | 0 mm | - | 2 W/m² | - |
| 1777941283 | 25° C | 47% | 1009.8 hPa | 0 mm | - | 4 W/m² | - |
| 1777940978 | 25° C | 48% | 1009.8 hPa | 0 mm | - | 7 W/m² | - |
| 1777940675 | 25° C | 47% | 1009.9 hPa | 0 mm | - | 10 W/m² | - |
| 1777940374 | 25° C | 47% | 1009.9 hPa | 0 mm | - | 13 W/m² | - |
| 1777940071 | 25° C | 46% | 1010 hPa | 0 mm | - | 17 W/m² | - |
| 1777939767 | 25.56° C | 46% | 1009.7 hPa | 0 mm | - | 21 W/m² | - |
| 1777939466 | 25.56° C | 46% | 1009.8 hPa | 0 mm | - | 25 W/m² | - |
| 1777939162 | 25.56° C | 45% | 1009.7 hPa | 0 mm | - | 28 W/m² | - |
| 1777938860 | 25.56° C | 44% | 1009.8 hPa | 0 mm | - | 30 W/m² | - |
| 1777938556 | 25.56° C | 43% | 1010.1 hPa | 0 mm | - | 33 W/m² | - |
| 1777938253 | 25.56° C | 42% | 1009.9 hPa | 0 mm | - | 36 W/m² | - |
| 1777937950 | 26.11° C | 41% | 1010.2 hPa | 0 mm | - | 39 W/m² | - |
| 1777937645 | 26.11° C | 42% | 1009.9 hPa | 0 mm | - | 44 W/m² | - |
* Rain latest hour (hover to see other rain measurements)
** Current wind speed in m/s (hover to see current wind gust speed)